SKW3064 KSAN-KSBA

Flight info

Callsign SKW3064
Flight time 0h 34m
Altitude 26000
Route PADRZ2 PADRZ SXC WEEZL KWANG
Aircraft E75L/M-SDE3GILORVW/S

Departure

Time 2026-05-04 21:05
Airport San Diego International Airport (KSAN)

Arrival

Time 2026-05-04 21:39
Airport Santa Barbara Municipal Airport (KSBA)
Time Latitude Longitude Altitude Speed Heading
2026-05-04 20:44 32.73344 -117.20474 20 ft 0 kts 84°
2026-05-04 20:51 32.73344 -117.20475 20 ft 0 kts 84°
2026-05-04 20:54 32.73344 -117.20493 20 ft 4 kts 97°
2026-05-04 20:54 32.73349 -117.20524 24 ft 4 kts 99°
2026-05-04 20:54 32.73351 -117.20550 22 ft 4 kts 88°
2026-05-04 20:55 32.73345 -117.20581 22 ft 4 kts 58°
2026-05-04 20:55 32.73335 -117.20595 20 ft 1 kts 44°
2026-05-04 20:55 32.73333 -117.20597 20 ft 0 kts 44°
2026-05-04 20:59 32.73344 -117.20584 21 ft 5 kts 44°
2026-05-04 20:59 32.73375 -117.20563 20 ft 6 kts
2026-05-04 20:59 32.73429 -117.20562 20 ft 10 kts
2026-05-04 20:59 32.73494 -117.20537 22 ft 11 kts 44°
2026-05-04 21:00 32.73552 -117.20458 22 ft 15 kts 49°
2026-05-04 21:00 32.73589 -117.20354 20 ft 14 kts 105°
2026-05-04 21:00 32.73559 -117.20230 22 ft 18 kts 105°
2026-05-04 21:00 32.73522 -117.20071 20 ft 22 kts 105°
2026-05-04 21:01 32.73477 -117.19880 21 ft 26 kts 105°
2026-05-04 21:01 32.73421 -117.19662 21 ft 29 kts 107°
2026-05-04 21:01 32.73359 -117.19417 22 ft 33 kts 105°
2026-05-04 21:01 32.73299 -117.19157 22 ft 33 kts 105°
2026-05-04 21:02 32.73234 -117.18887 20 ft 35 kts 106°
2026-05-04 21:02 32.73167 -117.18604 22 ft 36 kts 106°
2026-05-04 21:02 32.73091 -117.18314 21 ft 37 kts 107°
2026-05-04 21:02 32.73023 -117.18017 21 ft 33 kts 107°
2026-05-04 21:03 32.72973 -117.17807 21 ft 24 kts 110°
2026-05-04 21:03 32.72943 -117.17695 23 ft 3 kts 74°
2026-05-04 21:03 32.72953 -117.17664 21 ft 6 kts 66°
2026-05-04 21:03 32.72980 -117.17615 22 ft 7 kts 33°
2026-05-04 21:04 32.73015 -117.17605 21 ft 4 kts 332°
2026-05-04 21:04 32.73031 -117.17633 20 ft 8 kts 286°
2026-05-04 21:04 32.73126 -117.18016 19 ft 91 kts 287°
2026-05-04 21:04 32.73358 -117.18983 399 ft 129 kts 283°
2026-05-04 21:05 32.73581 -117.20077 1268 ft 149 kts 285°
2026-05-04 21:05 32.73962 -117.21335 1899 ft 175 kts 294°
2026-05-04 21:05 32.74654 -117.22624 2786 ft 196 kts 303°
2026-05-04 21:05 32.75454 -117.24032 3612 ft 220 kts 302°
2026-05-04 21:06 32.76345 -117.25600 4354 ft 238 kts 303°
2026-05-04 21:06 32.77308 -117.27284 5183 ft 252 kts 303°
2026-05-04 21:06 32.78306 -117.29019 6216 ft 255 kts 303°
2026-05-04 21:06 32.79320 -117.30775 7220 ft 260 kts 302°
2026-05-04 21:07 32.80001 -117.31958 7934 ft 263 kts 301°
2026-05-04 21:07 32.81096 -117.33735 9041 ft 270 kts 305°
2026-05-04 21:07 32.82302 -117.35494 10091 ft 277 kts 304°
2026-05-04 21:07 32.83526 -117.37362 10726 ft 297 kts 303°
2026-05-04 21:08 32.85262 -117.40075 11393 ft 324 kts 303°
2026-05-04 21:08 32.86201 -117.41537 11843 ft 333 kts 303°
2026-05-04 21:08 32.87607 -117.43715 12813 ft 337 kts 302°
2026-05-04 21:08 32.89052 -117.45956 13994 ft 337 kts 302°
2026-05-04 21:09 32.90464 -117.48147 15089 ft 338 kts 301°
2026-05-04 21:09 32.91903 -117.50385 16181 ft 341 kts 301°
2026-05-04 21:09 32.93354 -117.52645 17093 ft 348 kts 300°
2026-05-04 21:09 32.94841 -117.54970 17767 ft 359 kts 300°
2026-05-04 21:10 32.96385 -117.57386 18320 ft 372 kts 300°
2026-05-04 21:10 32.97976 -117.59867 18901 ft 381 kts 300°
2026-05-04 21:10 32.99580 -117.62361 19930 ft 374 kts 299°
2026-05-04 21:10 33.01144 -117.64786 21170 ft 366 kts 298°
2026-05-04 21:11 33.02690 -117.67202 21990 ft 368 kts 297°
2026-05-04 21:11 33.04244 -117.69643 22676 ft 372 kts 297°
2026-05-04 21:11 33.05823 -117.72109 23286 ft 378 kts 298°
2026-05-04 21:11 33.07626 -117.74245 23785 ft 395 kts 307°
2026-05-04 21:12 33.09725 -117.76410 24239 ft 402 kts 308°
2026-05-04 21:12 33.11865 -117.78579 24702 ft 406 kts 308°
2026-05-04 21:12 33.14033 -117.80774 25174 ft 410 kts 307°
2026-05-04 21:12 33.16216 -117.82989 25621 ft 413 kts 307°
2026-05-04 21:13 33.18375 -117.85229 26073 ft 402 kts 303°
2026-05-04 21:13 33.20018 -117.87685 25965 ft 355 kts 287°
2026-05-04 21:13 33.20951 -117.90190 25965 ft 321 kts 278°
2026-05-04 21:13 33.21755 -117.92583 26088 ft 297 kts 278°
2026-05-04 21:14 33.22507 -117.94818 26060 ft 286 kts 277°
2026-05-04 21:14 33.23219 -117.97051 26095 ft 291 kts 277°
2026-05-04 21:14 33.23936 -117.99331 26101 ft 295 kts 277°
2026-05-04 21:14 33.24669 -118.01636 26106 ft 298 kts 277°
2026-05-04 21:15 33.25408 -118.03951 26109 ft 298 kts 277°
2026-05-04 21:15 33.26148 -118.06262 26112 ft 298 kts 277°
2026-05-04 21:15 33.26887 -118.08577 26066 ft 298 kts 277°
2026-05-04 21:15 33.27622 -118.10880 26059 ft 295 kts 277°
2026-05-04 21:16 33.28354 -118.13175 26077 ft 295 kts 277°
2026-05-04 21:16 33.29083 -118.15473 26083 ft 296 kts 277°
2026-05-04 21:16 33.29813 -118.17769 26083 ft 296 kts 277°
2026-05-04 21:16 33.30546 -118.20074 26086 ft 296 kts 277°
2026-05-04 21:17 33.31276 -118.22373 26088 ft 296 kts 277°
2026-05-04 21:17 33.32007 -118.24679 26093 ft 296 kts 277°
2026-05-04 21:17 33.32727 -118.26947 26099 ft 296 kts 277°
2026-05-04 21:17 33.33458 -118.29260 26102 ft 299 kts 277°
2026-05-04 21:18 33.34186 -118.31572 26116 ft 296 kts 278°
2026-05-04 21:18 33.34903 -118.33877 26098 ft 294 kts 277°
2026-05-04 21:18 33.35631 -118.36163 26097 ft 295 kts 277°
2026-05-04 21:18 33.36370 -118.38478 26117 ft 299 kts 278°
2026-05-04 21:19 33.37171 -118.40790 26112 ft 307 kts 284°
2026-05-04 21:19 33.38397 -118.42964 26118 ft 323 kts 294°
2026-05-04 21:19 33.39810 -118.45053 26090 ft 324 kts 294°
2026-05-04 21:19 33.41234 -118.47141 26098 ft 324 kts 294°
2026-05-04 21:20 33.42667 -118.49215 26094 ft 323 kts 295°
2026-05-04 21:20 33.44097 -118.51248 26106 ft 324 kts 295°
2026-05-04 21:20 33.45538 -118.53323 26086 ft 328 kts 295°
2026-05-04 21:20 33.47032 -118.55499 26137 ft 347 kts 294°
2026-05-04 21:21 33.48517 -118.57848 26204 ft 361 kts 294°
2026-05-04 21:21 33.50182 -118.60253 26157 ft 389 kts 298°
2026-05-04 21:21 33.52013 -118.62770 26072 ft 411 kts 299°
2026-05-04 21:21 33.53935 -118.65440 25865 ft 433 kts 299°
2026-05-04 21:22 33.55935 -118.68262 25736 ft 453 kts 300°
2026-05-04 21:22 33.57971 -118.71136 26151 ft 441 kts 300°
2026-05-04 21:22 33.59896 -118.73830 27019 ft 411 kts 297°
2026-05-04 21:22 33.61706 -118.76396 27498 ft 396 kts 296°
2026-05-04 21:23 33.63490 -118.78994 27083 ft 418 kts 296°
2026-05-04 21:23 33.65406 -118.81822 26134 ft 452 kts 298°
2026-05-04 21:23 33.67420 -118.84708 24951 ft 448 kts 301°
2026-05-04 21:23 33.69404 -118.87516 23298 ft 431 kts 302°
2026-05-04 21:24 33.71308 -118.90205 21334 ft 414 kts 303°
2026-05-04 21:24 33.73131 -118.92820 19315 ft 404 kts 303°
2026-05-04 21:24 33.74914 -118.95410 17171 ft 401 kts 304°
2026-05-04 21:24 33.76670 -118.97961 15278 ft 390 kts 306°
2026-05-04 21:25 33.78373 -119.00433 13579 ft 377 kts 306°
2026-05-04 21:25 33.80086 -119.02761 12070 ft 365 kts 314°
2026-05-04 21:25 33.82018 -119.04539 11654 ft 329 kts 321°
2026-05-04 21:25 33.83785 -119.06045 11585 ft 299 kts 320°
2026-05-04 21:26 33.85388 -119.07498 11535 ft 287 kts 319°
2026-05-04 21:26 33.86947 -119.08966 11496 ft 282 kts 317°
2026-05-04 21:26 33.88478 -119.10429 11472 ft 281 kts 317°
2026-05-04 21:26 33.90020 -119.11905 11271 ft 285 kts 317°
2026-05-04 21:27 33.91574 -119.13388 10992 ft 285 kts 317°
2026-05-04 21:27 33.93112 -119.14862 10749 ft 281 kts 317°
2026-05-04 21:27 33.94628 -119.16321 10472 ft 277 kts 317°
2026-05-04 21:27 33.96128 -119.17761 10267 ft 275 kts 317°
2026-05-04 21:28 33.97618 -119.19197 10021 ft 274 kts 317°
2026-05-04 21:28 33.99105 -119.20629 9763 ft 273 kts 317°
2026-05-04 21:28 34.00593 -119.22061 9506 ft 273 kts 318°
2026-05-04 21:28 34.02073 -119.23484 9237 ft 269 kts 319°
2026-05-04 21:29 34.03515 -119.24865 8961 ft 262 kts 318°
2026-05-04 21:29 34.04949 -119.26242 8706 ft 266 kts 319°
2026-05-04 21:29 34.06404 -119.27643 8474 ft 268 kts 319°
2026-05-04 21:29 34.07856 -119.29054 8225 ft 269 kts 318°
2026-05-04 21:30 34.09307 -119.30471 7948 ft 268 kts 318°
2026-05-04 21:30 34.10763 -119.31881 7692 ft 267 kts 320°
2026-05-04 21:30 34.12224 -119.33259 7434 ft 265 kts 320°
2026-05-04 21:30 34.13658 -119.34636 7189 ft 262 kts 319°
2026-05-04 21:31 34.16436 -119.37340 6998 ft 252 kts 319°
2026-05-04 21:31 34.17820 -119.38694 7005 ft 257 kts 318°
2026-05-04 21:31 34.19226 -119.40060 6998 ft 259 kts 320°
2026-05-04 21:32 34.20622 -119.41401 6993 ft 259 kts 319°
2026-05-04 21:32 34.22028 -119.42756 7000 ft 258 kts 320°
2026-05-04 21:32 34.23434 -119.44114 6991 ft 258 kts 319°
2026-05-04 21:32 34.24830 -119.45471 7091 ft 258 kts 319°
2026-05-04 21:33 34.26258 -119.46866 6866 ft 269 kts 319°
2026-05-04 21:33 34.27728 -119.48300 6527 ft 272 kts 320°
2026-05-04 21:33 34.29238 -119.49685 6100 ft 273 kts 322°
2026-05-04 21:33 34.30767 -119.51044 5657 ft 272 kts 317°
2026-05-04 21:34 34.31846 -119.52831 5257 ft 254 kts 292°
2026-05-04 21:34 34.32412 -119.54793 4984 ft 249 kts 287°
2026-05-04 21:34 34.32952 -119.56804 4669 ft 252 kts 289°
2026-05-04 21:34 34.33588 -119.58789 4361 ft 254 kts 291°
2026-05-04 21:35 34.34287 -119.60779 4033 ft 259 kts 293°
2026-05-04 21:35 34.35003 -119.62777 3594 ft 257 kts 292°
2026-05-04 21:35 34.35667 -119.64706 3199 ft 241 kts 291°
2026-05-04 21:35 34.36313 -119.66550 2901 ft 243 kts 290°
2026-05-04 21:36 34.36983 -119.68441 2624 ft 247 kts 291°
2026-05-04 21:36 34.37676 -119.70393 2342 ft 249 kts 290°
2026-05-04 21:36 34.38344 -119.72270 2030 ft 243 kts 290°
2026-05-04 21:36 34.39008 -119.74143 1704 ft 241 kts 291°
2026-05-04 21:37 34.39672 -119.75905 1498 ft 221 kts 293°
2026-05-04 21:37 34.40358 -119.77555 751 ft 219 kts 296°
2026-05-04 21:37 34.40982 -119.79119 672 ft 186 kts 294°
2026-05-04 21:37 34.41578 -119.80439 636 ft 174 kts 303°
2026-05-04 21:38 34.42360 -119.81437 363 ft 162 kts 310°
2026-05-04 21:38 34.42773 -119.82525 173 ft 138 kts 273°
2026-05-04 21:38 34.42778 -119.83642 46 ft 125 kts 270°
2026-05-04 21:38 34.42773 -119.84572 14 ft 91 kts 267°
2026-05-04 21:39 34.42758 -119.85135 14 ft 34 kts 258°
2026-05-04 21:39 34.42696 -119.85194 15 ft 9 kts 174°
2026-05-04 21:39 34.42641 -119.85179 16 ft 4 kts 133°
2026-05-04 21:39 34.42637 -119.85144 16 ft 7 kts 88°
2026-05-04 21:40 34.42640 -119.85045 16 ft 17 kts 88°
2026-05-04 21:40 34.42644 -119.84866 15 ft 26 kts 88°
2026-05-04 21:40 34.42650 -119.84638 15 ft 29 kts 88°
2026-05-04 21:40 34.42657 -119.84387 16 ft 31 kts 88°
2026-05-04 21:41 34.42666 -119.84121 16 ft 29 kts 88°
2026-05-04 21:41 34.42672 -119.83900 18 ft 23 kts 89°
2026-05-04 21:41 34.42619 -119.83820 16 ft 11 kts 165°
2026-05-04 21:41 34.42538 -119.83787 18 ft 12 kts 135°
2026-05-04 21:42 34.42513 -119.83729 18 ft 0 kts 114°
2026-05-04 21:42 34.42510 -119.83721 17 ft 0 kts 114°
2026-05-04 21:45 34.42510 -119.83722 17 ft 0 kts 114°